Time,TemperatureF,DewpointF,PressureIn,WindDirection,WindDirectionDegrees,WindSpeedMPH,WindSpeedGustMPH,Humidity,HourlyPrecipIn,Conditions,Clouds,dailyrainin,SolarRadiationWatts/m^2,SoftwareType,DateUTC
2013-06-22 00:12:00,57.5,10.0,29.60,ESE,103,0.0,0.0,15,0.00,,,0.00,0,weatherlink.com 1.10,2013-06-22 06:12:00,
2013-06-22 00:27:00,57.1,10.0,29.60,ESE,103,0.0,1.0,15,0.00,,,0.00,0,weatherlink.com 1.10,2013-06-22 06:27:00,
2013-06-22 00:42:00,56.7,11.0,29.60,ESE,103,0.0,1.0,16,0.00,,,0.00,0,weatherlink.com 1.10,2013-06-22 06:42:00,
2013-06-22 00:57:00,58.6,11.0,29.60,ESE,103,1.0,1.0,15,0.00,,,0.00,0,weatherlink.com 1.10,2013-06-22 06:57:00,
2013-06-22 01:12:00,57.9,12.0,29.59,East,101,0.0,1.0,16,0.00,,,0.00,0,weatherlink.com 1.10,2013-06-22 07:12:00,
2013-06-22 01:27:00,57.7,12.0,29.59,East,101,0.0,1.0,16,0.00,,,0.00,0,weatherlink.com 1.10,2013-06-22 07:27:00,
2013-06-22 01:42:00,57.4,13.0,29.59,SSE,148,3.0,3.0,17,0.00,,,0.00,0,weatherlink.com 1.10,2013-06-22 07:42:00,
2013-06-22 01:57:00,57.6,13.0,29.59,SE,145,0.0,0.0,17,0.00,,,0.00,0,weatherlink.com 1.10,2013-06-22 07:57:00,
2013-06-22 02:12:00,56.8,13.0,29.58,SE,143,0.0,1.0,18,0.00,,,0.00,0,weatherlink.com 1.10,2013-06-22 08:12:00,
2013-06-22 02:27:00,55.9,13.0,29.59,North,360,1.0,1.0,18,0.00,,,0.00,0,weatherlink.com 1.10,2013-06-22 08:27:00,
2013-06-22 02:42:00,54.9,13.0,29.59,North,360,0.0,2.0,19,0.00,,,0.00,0,weatherlink.com 1.10,2013-06-22 08:42:00,
2013-06-22 02:57:00,54.1,14.0,29.59,North,360,0.0,0.0,20,0.00,,,0.00,0,weatherlink.com 1.10,2013-06-22 08:57:00,
2013-06-22 03:12:00,53.9,14.0,29.58,North,360,0.0,1.0,20,0.00,,,0.00,0,weatherlink.com 1.10,2013-06-22 09:12:00,
2013-06-22 03:27:00,53.9,14.0,29.59,North,360,0.0,1.0,20,0.00,,,0.00,0,weatherlink.com 1.10,2013-06-22 09:27:00,
2013-06-22 03:42:00,54.2,14.0,29.59,North,360,0.0,2.0,20,0.00,,,0.00,0,weatherlink.com 1.10,2013-06-22 09:42:00,
2013-06-22 03:57:00,52.9,14.0,29.59,North,360,0.0,2.0,21,0.00,,,0.00,0,weatherlink.com 1.10,2013-06-22 09:57:00,
2013-06-22 04:13:00,52.6,13.0,29.59,North,360,0.0,0.0,21,0.00,,,0.00,0,weatherlink.com 1.10,2013-06-22 10:13:00,
2013-06-22 04:28:00,52.9,14.0,29.59,North,360,0.0,0.0,21,0.00,,,0.00,0,weatherlink.com 1.10,2013-06-22 10:28:00,
2013-06-22 04:43:00,53.1,13.0,29.58,North,360,0.0,1.0,20,0.00,,,0.00,0,weatherlink.com 1.10,2013-06-22 10:43:00,
2013-06-22 04:58:00,52.9,14.0,29.59,North,360,0.0,2.0,21,0.00,,,0.00,0,weatherlink.com 1.10,2013-06-22 10:58:00,
2013-06-22 05:13:00,52.5,13.0,29.58,North,360,0.0,0.0,21,0.00,,,0.00,0,weatherlink.com 1.10,2013-06-22 11:13:00,
2013-06-22 05:28:00,53.4,14.0,29.59,North,360,0.0,1.0,21,0.00,,,0.00,0,weatherlink.com 1.10,2013-06-22 11:28:00,
2013-06-22 05:43:00,53.2,14.0,29.60,North,360,0.0,0.0,21,0.00,,,0.00,0,weatherlink.com 1.10,2013-06-22 11:43:00,
2013-06-22 05:58:00,51.3,13.0,29.60,North,360,0.0,0.0,22,0.00,,,0.00,5,weatherlink.com 1.10,2013-06-22 11:58:00,
2013-06-22 06:13:00,51.2,14.0,29.61,North,360,0.0,0.0,23,0.00,,,0.00,12,weatherlink.com 1.10,2013-06-22 12:13:00,
2013-06-22 06:28:00,51.5,15.0,29.61,North,360,0.0,0.0,23,0.00,,,0.00,23,weatherlink.com 1.10,2013-06-22 12:28:00,
2013-06-22 06:43:00,53.6,15.0,29.61,North,360,0.0,2.0,22,0.00,,,0.00,30,weatherlink.com 1.10,2013-06-22 12:43:00,
2013-06-22 06:58:00,54.9,17.0,29.61,SE,141,0.0,1.0,22,0.00,,,0.00,51,weatherlink.com 1.10,2013-06-22 12:58:00,
2013-06-22 07:13:00,56.5,17.0,29.61,SE,140,0.0,1.0,21,0.00,,,0.00,46,weatherlink.com 1.10,2013-06-22 13:13:00,
2013-06-22 07:28:00,56.3,18.0,29.60,SE,140,1.0,1.0,22,0.00,,,0.00,47,weatherlink.com 1.10,2013-06-22 13:28:00,
2013-06-22 07:43:00,57.4,18.0,29.60,SE,140,0.0,2.0,21,0.00,,,0.00,76,weatherlink.com 1.10,2013-06-22 13:43:00,
2013-06-22 07:58:00,58.1,17.0,29.61,West,268,1.0,3.0,20,0.00,,,0.00,74,weatherlink.com 1.10,2013-06-22 13:58:00,
2013-06-22 08:13:00,58.2,18.0,29.61,West,265,0.0,1.0,21,0.00,,,0.00,77,weatherlink.com 1.10,2013-06-22 14:13:00,
2013-06-22 08:28:00,59.2,18.0,29.60,West,281,0.0,3.0,20,0.00,,,0.00,100,weatherlink.com 1.10,2013-06-22 14:28:00,
2013-06-22 08:43:00,59.8,18.0,29.60,West,269,0.0,3.0,20,0.00,,,0.00,90,weatherlink.com 1.10,2013-06-22 14:43:00,
2013-06-22 08:58:00,61.2,18.0,29.60,WNW,298,3.0,4.0,19,0.00,,,0.00,520,weatherlink.com 1.10,2013-06-22 14:58:00,
2013-06-22 09:13:00,62.3,18.0,29.60,West,273,3.0,5.0,18,0.00,,,0.00,671,weatherlink.com 1.10,2013-06-22 15:13:00,
2013-06-22 09:28:00,62.2,18.0,29.60,West,261,1.0,7.0,18,0.00,,,0.00,241,weatherlink.com 1.10,2013-06-22 15:28:00,
2013-06-22 09:43:00,62.1,18.0,29.60,WSW,239,3.0,4.0,18,0.00,,,0.00,257,weatherlink.com 1.10,2013-06-22 15:43:00,
2013-06-22 09:58:00,63.2,16.0,29.60,WNW,301,3.0,6.0,16,0.00,,,0.00,316,weatherlink.com 1.10,2013-06-22 15:58:00,
2013-06-22 10:13:00,64.5,20.0,29.60,NW,323,2.0,5.0,18,0.00,,,0.00,809,weatherlink.com 1.10,2013-06-22 16:13:00,
2013-06-22 10:28:00,66.4,19.0,29.59,WNW,296,4.0,6.0,16,0.00,,,0.00,882,weatherlink.com 1.10,2013-06-22 16:28:00,
2013-06-22 10:43:00,67.4,18.0,29.60,WNW,286,4.0,8.0,15,0.00,,,0.00,888,weatherlink.com 1.10,2013-06-22 16:43:00,
2013-06-22 10:58:00,66.7,17.0,29.60,WNW,293,0.0,6.0,15,0.00,,,0.00,517,weatherlink.com 1.10,2013-06-22 16:58:00,
2013-06-22 11:13:00,69.2,18.0,29.60,WNW,298,4.0,6.0,14,0.00,,,0.00,318,weatherlink.com 1.10,2013-06-22 17:13:00,
2013-06-22 11:28:00,70.1,19.0,29.59,WNW,300,4.0,7.0,14,0.00,,,0.00,976,weatherlink.com 1.10,2013-06-22 17:28:00,
2013-06-22 11:43:00,72.1,19.0,29.59,West,265,5.0,6.0,13,0.00,,,0.00,1007,weatherlink.com 1.10,2013-06-22 17:43:00,
2013-06-22 11:59:00,70.6,13.0,29.58,SW,230,4.0,7.0,11,0.00,,,0.00,1025,weatherlink.com 1.10,2013-06-22 17:59:00,
2013-06-22 12:14:00,72.7,15.0,29.58,West,275,3.0,10.0,11,0.00,,,0.00,1020,weatherlink.com 1.10,2013-06-22 18:14:00,
2013-06-22 12:29:00,73.2,18.0,29.58,NW,313,5.0,11.0,12,0.00,,,0.00,1055,weatherlink.com 1.10,2013-06-22 18:29:00,
2013-06-22 12:44:00,74.7,17.0,29.57,WSW,248,3.0,11.0,11,0.00,,,0.00,1090,weatherlink.com 1.10,2013-06-22 18:44:00,
2013-06-22 12:59:00,74.1,16.0,29.56,West,262,5.0,9.0,11,0.00,,,0.00,956,weatherlink.com 1.10,2013-06-22 18:59:00,
2013-06-22 13:14:00,74.8,17.0,29.56,West,280,5.0,8.0,11,0.00,,,0.00,1079,weatherlink.com 1.10,2013-06-22 19:14:00,
2013-06-22 13:29:00,75.2,17.0,29.55,West,265,4.0,8.0,11,0.00,,,0.00,1069,weatherlink.com 1.10,2013-06-22 19:29:00,
2013-06-22 13:44:00,75.8,15.0,29.54,WNW,290,3.0,8.0,10,0.00,,,0.00,1071,weatherlink.com 1.10,2013-06-22 19:44:00,
2013-06-22 13:59:00,75.1,17.0,29.54,West,269,5.0,9.0,11,0.00,,,0.00,1067,weatherlink.com 1.10,2013-06-22 19:59:00,
2013-06-22 14:14:00,75.0,17.0,29.53,WNW,284,3.0,10.0,11,0.00,,,0.00,1051,weatherlink.com 1.10,2013-06-22 20:14:00,
2013-06-22 14:29:00,77.8,17.0,29.53,WNW,290,2.0,8.0,10,0.00,,,0.00,1041,weatherlink.com 1.10,2013-06-22 20:29:00,
2013-06-22 14:44:00,77.6,17.0,29.52,WSW,257,6.0,8.0,10,0.00,,,0.00,997,weatherlink.com 1.10,2013-06-22 20:44:00,
2013-06-22 14:59:00,75.5,15.0,29.52,SW,234,5.0,10.0,10,0.00,,,0.00,888,weatherlink.com 1.10,2013-06-22 20:59:00,
2013-06-22 15:14:00,77.4,14.0,29.52,West,262,5.0,8.0,9,0.00,,,0.00,947,weatherlink.com 1.10,2013-06-22 21:14:00,
2013-06-22 15:29:00,76.1,13.0,29.52,North,355,6.0,11.0,9,0.00,,,0.00,974,weatherlink.com 1.10,2013-06-22 21:29:00,
2013-06-22 15:44:00,78.3,12.0,29.51,WSW,244,1.0,9.0,8,0.00,,,0.00,918,weatherlink.com 1.10,2013-06-22 21:44:00,
2013-06-22 15:59:00,79.4,13.0,29.50,SSW,195,7.0,9.0,8,0.00,,,0.00,889,weatherlink.com 1.10,2013-06-22 21:59:00,
2013-06-22 16:14:00,77.6,14.0,29.50,WNW,286,4.0,8.0,9,0.00,,,0.00,791,weatherlink.com 1.10,2013-06-22 22:14:00,
2013-06-22 16:29:00,74.6,12.0,29.50,WNW,290,5.0,10.0,9,0.00,,,0.00,232,weatherlink.com 1.10,2013-06-22 22:29:00,
2013-06-22 16:44:00,74.4,12.0,29.50,West,270,3.0,9.0,9,0.00,,,0.00,705,weatherlink.com 1.10,2013-06-22 22:44:00,
2013-06-22 16:59:00,73.7,14.0,29.50,WNW,302,3.0,6.0,10,0.00,,,0.00,740,weatherlink.com 1.10,2013-06-22 22:59:00,
2013-06-22 17:14:00,76.8,11.0,29.49,WSW,244,3.0,7.0,8,0.00,,,0.00,513,weatherlink.com 1.10,2013-06-22 23:14:00,
2013-06-22 17:29:00,75.5,10.0,29.48,WSW,254,3.0,8.0,8,0.00,,,0.00,550,weatherlink.com 1.10,2013-06-22 23:29:00,
2013-06-22 17:44:00,75.4,15.0,29.48,SW,236,3.0,8.0,10,0.00,,,0.00,485,weatherlink.com 1.10,2013-06-22 23:44:00,
2013-06-22 17:59:00,75.3,13.0,29.48,WSW,247,2.0,10.0,9,0.00,,,0.00,587,weatherlink.com 1.10,2013-06-22 23:59:00,
2013-06-22 18:14:00,75.1,10.0,29.48,WNW,300,4.0,8.0,8,0.00,,,0.00,455,weatherlink.com 1.10,2013-06-23 00:14:00,
2013-06-22 18:29:00,74.0,12.0,29.48,WSW,249,4.0,11.0,9,0.00,,,0.00,469,weatherlink.com 1.10,2013-06-23 00:29:00,
2013-06-22 18:44:00,73.8,9.0,29.48,WNW,289,2.0,9.0,8,0.00,,,0.00,387,weatherlink.com 1.10,2013-06-23 00:44:00,
2013-06-22 18:59:00,72.6,8.0,29.48,West,263,2.0,8.0,8,0.00,,,0.00,297,weatherlink.com 1.10,2013-06-23 00:59:00,
2013-06-22 19:14:00,71.7,7.0,29.49,WNW,298,5.0,7.0,8,0.00,,,0.00,227,weatherlink.com 1.10,2013-06-23 01:14:00,
2013-06-22 19:29:00,70.7,9.0,29.50,WNW,302,4.0,9.0,9,0.00,,,0.00,156,weatherlink.com 1.10,2013-06-23 01:29:00,
2013-06-22 19:44:00,69.8,11.0,29.50,North,360,2.0,7.0,10,0.00,,,0.00,32,weatherlink.com 1.10,2013-06-23 01:44:00,
2013-06-22 19:59:00,68.9,10.0,29.51,West,267,2.0,4.0,10,0.00,,,0.00,21,weatherlink.com 1.10,2013-06-23 01:59:00,
2013-06-22 20:14:00,67.6,9.0,29.52,West,264,2.0,6.0,10,0.00,,,0.00,5,weatherlink.com 1.10,2013-06-23 02:14:00,
2013-06-22 20:29:00,66.2,8.0,29.52,West,279,1.0,4.0,10,0.00,,,0.00,0,weatherlink.com 1.10,2013-06-23 02:29:00,
2013-06-22 20:44:00,65.5,7.0,29.53,WNW,295,2.0,4.0,10,0.00,,,0.00,0,weatherlink.com 1.10,2013-06-23 02:44:00,
2013-06-22 20:59:00,64.9,7.0,29.54,WSW,248,2.0,4.0,10,0.00,,,0.00,0,weatherlink.com 1.10,2013-06-23 02:59:00,
2013-06-22 21:14:00,64.6,7.0,29.55,WSW,250,1.0,5.0,10,0.00,,,0.00,0,weatherlink.com 1.10,2013-06-23 03:14:00,
2013-06-22 21:29:00,63.8,8.0,29.56,West,273,1.0,3.0,11,0.00,,,0.00,0,weatherlink.com 1.10,2013-06-23 03:29:00,
2013-06-22 21:44:00,63.1,8.0,29.57,WSW,239,0.0,2.0,11,0.00,,,0.00,0,weatherlink.com 1.10,2013-06-23 03:44:00,
2013-06-22 21:59:00,61.9,7.0,29.58,WSW,250,1.0,7.0,11,0.00,,,0.00,0,weatherlink.com 1.10,2013-06-23 03:59:00,
2013-06-22 22:14:00,61.1,8.0,29.58,WSW,250,0.0,1.0,12,0.00,,,0.00,0,weatherlink.com 1.10,2013-06-23 04:14:00,
2013-06-22 22:29:00,60.0,7.0,29.58,WNW,292,1.0,4.0,12,0.00,,,0.00,0,weatherlink.com 1.10,2013-06-23 04:29:00,
2013-06-22 22:44:00,58.9,8.0,29.58,WNW,292,0.0,0.0,13,0.00,,,0.00,0,weatherlink.com 1.10,2013-06-23 04:44:00,
2013-06-22 22:59:00,58.3,7.0,29.58,WNW,298,0.0,1.0,13,0.00,,,0.00,0,weatherlink.com 1.10,2013-06-23 04:59:00,
2013-06-22 23:14:00,57.8,7.0,29.58,WNW,298,0.0,1.0,13,0.00,,,0.00,0,weatherlink.com 1.10,2013-06-23 05:14:00,
2013-06-22 23:29:00,57.7,7.0,29.58,WNW,298,0.0,1.0,13,0.00,,,0.00,0,weatherlink.com 1.10,2013-06-23 05:29:00,
2013-06-22 23:44:00,57.1,6.0,29.57,WNW,298,0.0,1.0,13,0.00,,,0.00,0,weatherlink.com 1.10,2013-06-23 05:44:00,
2013-06-22 23:59:00,56.3,7.0,29.58,North,360,0.0,0.0,14,0.00,,,0.00,0,weatherlink.com 1.10,2013-06-23 05:59:00,